TimeEDT,TemperatureF,Dew PointF,Humidity,Sea Level PressureIn,VisibilityMPH,Wind Direction,Wind SpeedMPH,Gust SpeedMPH,PrecipitationIn,Events,Conditions,WindDirDegrees,DateUTC
12:52 AM,30.9,26.1,82,30.35,10.0,Calm,Calm,-,N/A,,Clear,0,2013-04-28 04:52:00
1:52 AM,30.0,26.1,85,30.34,10.0,Calm,Calm,-,N/A,,Clear,0,2013-04-28 05:52:00
2:52 AM,28.9,25.0,85,30.33,10.0,Calm,Calm,-,N/A,,Clear,0,2013-04-28 06:52:00
3:52 AM,28.9,25.0,85,30.33,10.0,Calm,Calm,-,N/A,,Clear,0,2013-04-28 07:52:00
4:52 AM,28.0,24.1,85,30.33,10.0,Calm,Calm,-,N/A,,Clear,0,2013-04-28 08:52:00
5:52 AM,27.0,23.0,85,30.33,10.0,Calm,Calm,-,N/A,,Clear,0,2013-04-28 09:52:00
6:52 AM,30.9,27.0,85,30.33,10.0,Calm,Calm,-,N/A,,Clear,0,2013-04-28 10:52:00
7:52 AM,37.9,30.0,73,30.34,10.0,Calm,Calm,-,N/A,,Clear,0,2013-04-28 11:52:00
8:52 AM,46.0,32.0,58,30.34,10.0,Calm,Calm,-,N/A,,Clear,0,2013-04-28 12:52:00
9:52 AM,55.0,32.0,42,30.33,10.0,Calm,Calm,-,N/A,,Clear,0,2013-04-28 13:52:00
10:52 AM,62.1,28.9,29,30.31,10.0,WNW,10.4,-,N/A,,Clear,300,2013-04-28 14:52:00
11:52 AM,64.0,28.9,27,30.29,10.0,South,4.6,-,N/A,,Clear,180,2013-04-28 15:52:00
12:52 PM,66.0,30.0,26,30.26,10.0,Variable,5.8,-,N/A,,Clear,0,2013-04-28 16:52:00
1:52 PM,68.0,30.9,25,30.25,10.0,Variable,5.8,-,N/A,,Clear,0,2013-04-28 17:52:00
2:52 PM,68.0,28.9,23,30.22,10.0,WSW,5.8,-,N/A,,Clear,250,2013-04-28 18:52:00
3:52 PM,69.1,28.9,22,30.20,10.0,Variable,4.6,-,N/A,,Partly Cloudy,0,2013-04-28 19:52:00
4:52 PM,70.0,28.0,21,30.18,10.0,Variable,3.5,-,N/A,,Mostly Cloudy,0,2013-04-28 20:52:00
5:52 PM,69.1,28.0,22,30.18,10.0,SW,8.1,-,N/A,,Scattered Clouds,230,2013-04-28 21:52:00
6:52 PM,66.0,30.0,26,30.17,10.0,SSE,4.6,-,N/A,,Clear,160,2013-04-28 22:52:00
7:52 PM,62.1,32.0,32,30.18,10.0,SSE,15.0,19.6,N/A,,Clear,160,2013-04-28 23:52:00
8:52 PM,59.0,32.0,36,30.18,10.0,SSE,11.5,23.0,N/A,,Clear,160,2013-04-29 00:52:00
9:52 PM,55.9,32.0,40,30.19,10.0,NW,6.9,-,N/A,,Clear,320,2013-04-29 01:52:00
10:52 PM,52.0,33.1,49,30.20,10.0,Calm,Calm,-,N/A,,Clear,0,2013-04-29 02:52:00
11:52 PM,48.9,33.1,54,30.21,10.0,WNW,3.5,-,N/A,,Clear,300,2013-04-29 03:52:00